GLO1019 SBRJ-SBSP

Flight info

Callsign GLO1019
Flight time N/A
Altitude 30000
Route NAXOP UZ45 IBDAL
Aircraft B738/M-SDE2E3FGHIRWXY/LB1

Departure

Time 2026-05-01 15:03
Airport Santos Dumont Airport (SBRJ)

Arrival

Time N/A
Airport Congonhas–Deputado Freitas Nobre Airport (SBSP)
Time Latitude Longitude Altitude Speed Heading
2026-05-01 14:59 -22.90712 -43.16630 29 ft 0 kts 267°
2026-05-01 15:01 -22.90710 -43.16632 29 ft 1 kts 290°
2026-05-01 15:01 -22.90661 -43.16591 29 ft 1 kts 319°
2026-05-01 15:02 -22.90615 -43.16583 29 ft 11 kts 14°
2026-05-01 15:02 -22.90564 -43.16569 29 ft 11 kts 14°
2026-05-01 15:02 -22.90496 -43.16504 29 ft 11 kts 86°
2026-05-01 15:02 -22.90494 -43.16413 27 ft 16 kts 88°
2026-05-01 15:03 -22.90541 -43.16314 27 ft 18 kts 178°
2026-05-01 15:03 -22.90925 -43.16290 29 ft 102 kts 176°
2026-05-01 15:03 -22.91877 -43.16229 288 ft 154 kts 174°
2026-05-01 15:03 -22.92887 -43.16021 1311 ft 145 kts 146°
2026-05-01 15:04 -22.93572 -43.15270 2202 ft 145 kts 133°
2026-05-01 15:04 -22.94461 -43.14570 2522 ft 180 kts 161°
2026-05-01 15:04 -22.95814 -43.14714 2838 ft 217 kts 204°
2026-05-01 15:04 -22.97213 -43.15587 3097 ft 247 kts 210°
2026-05-01 15:05 -22.98764 -43.16591 3483 ft 268 kts 210°
2026-05-01 15:05 -23.00198 -43.17918 4269 ft 274 kts 233°
2026-05-01 15:05 -23.01262 -43.19637 5324 ft 277 kts 237°
2026-05-01 15:05 -23.02313 -43.21416 6276 ft 282 kts 238°
2026-05-01 15:06 -23.03377 -43.23212 7233 ft 285 kts 237°
2026-05-01 15:06 -23.04470 -43.25038 8146 ft 289 kts 237°
2026-05-01 15:06 -23.05563 -43.26846 9038 ft 293 kts 237°
2026-05-01 15:06 -23.06709 -43.28726 9976 ft 297 kts 237°
2026-05-01 15:07 -23.07852 -43.30591 10683 ft 307 kts 237°
2026-05-01 15:07 -23.09086 -43.32599 10907 ft 335 kts 237°
2026-05-01 15:07 -23.10415 -43.34798 11096 ft 359 kts 239°
2026-05-01 15:07 -23.11709 -43.37218 11318 ft 380 kts 242°
2026-05-01 15:08 -23.12997 -43.39771 11805 ft 389 kts 242°
2026-05-01 15:08 -23.14289 -43.42361 12622 ft 389 kts 242°
2026-05-01 15:08 -23.15581 -43.44943 13324 ft 391 kts 242°
2026-05-01 15:08 -23.16894 -43.47553 13899 ft 395 kts 242°
2026-05-01 15:09 -23.18225 -43.50183 14407 ft 398 kts 241°
2026-05-01 15:09 -23.19569 -43.52826 14942 ft 400 kts 241°
2026-05-01 15:09 -23.20919 -43.55475 15462 ft 403 kts 242°
2026-05-01 15:09 -23.22286 -43.58154 15969 ft 405 kts 242°
2026-05-01 15:10 -23.23655 -43.60835 16482 ft 408 kts 242°
2026-05-01 15:10 -23.26424 -43.66262 17526 ft 411 kts 242°
2026-05-01 15:10 -23.27819 -43.68998 17981 ft 414 kts 242°
2026-05-01 15:11 -23.29221 -43.71752 18422 ft 417 kts 242°
2026-05-01 15:11 -23.32051 -43.77311 19203 ft 422 kts 242°
2026-05-01 15:11 -23.33457 -43.80078 19590 ft 424 kts 242°
2026-05-01 15:12 -23.34886 -43.82889 19972 ft 426 kts 242°
2026-05-01 15:12 -23.37767 -43.88563 20702 ft 430 kts 242°
2026-05-01 15:12 -23.39216 -43.91418 21065 ft 433 kts 242°
2026-05-01 15:13 -23.43612 -44.00094 22093 ft 439 kts 243°
2026-05-01 15:14 -23.46570 -44.05940 22729 ft 443 kts 243°
2026-05-01 15:14 -23.48055 -44.08877 23039 ft 445 kts 243°
2026-05-01 15:14 -23.51018 -44.14831 23623 ft 448 kts 246°
2026-05-01 15:15 -23.52890 -44.21286 24136 ft 448 kts 257°
2026-05-01 15:15 -23.54336 -44.27875 24641 ft 450 kts 257°
2026-05-01 15:16 -23.55822 -44.34529 25115 ft 453 kts 257°
2026-05-01 15:16 -23.57339 -44.41208 25582 ft 455 kts 257°
2026-05-01 15:17 -23.58869 -44.47918 26023 ft 457 kts 257°
2026-05-01 15:18 -23.61172 -44.58047 26682 ft 460 kts 257°
2026-05-01 15:18 -23.61940 -44.61432 26916 ft 460 kts 257°
2026-05-01 15:19 -23.64236 -44.71578 27560 ft 461 kts 257°
2026-05-01 15:19 -23.65762 -44.78339 28152 ft 457 kts 257°
2026-05-01 15:19 -23.66520 -44.81701 28141 ft 456 kts 257°
2026-05-01 15:20 -23.68779 -44.91753 28164 ft 456 kts 257°
2026-05-01 15:21 -23.70299 -44.98536 28173 ft 460 kts 257°
2026-05-01 15:21 -23.71818 -45.05324 28159 ft 460 kts 257°
2026-05-01 15:22 -23.74078 -45.15454 28163 ft 460 kts 257°
2026-05-01 15:22 -23.75587 -45.22238 28164 ft 460 kts 257°
2026-05-01 15:23 -23.77093 -45.29022 28156 ft 460 kts 257°
2026-05-01 15:23 -23.78594 -45.35800 28167 ft 461 kts 257°
2026-05-01 15:24 -23.80098 -45.42610 28161 ft 461 kts 257°
2026-05-01 15:24 -23.80923 -45.49527 28168 ft 460 kts 268°
2026-05-01 15:25 -23.81168 -45.56515 28160 ft 460 kts 268°
2026-05-01 15:25 -23.81427 -45.63507 28166 ft 460 kts 268°
2026-05-01 15:26 -23.81727 -45.70487 28160 ft 460 kts 268°
2026-05-01 15:26 -23.82044 -45.77480 27519 ft 466 kts 268°
2026-05-01 15:27 -23.82202 -45.80960 26590 ft 464 kts 268°
2026-05-01 15:27 -23.82361 -45.84479 25711 ft 462 kts 268°
2026-05-01 15:27 -23.82517 -45.87960 24922 ft 457 kts 268°
2026-05-01 15:28 -23.82821 -45.94845 23263 ft 450 kts 268°
2026-05-01 15:28 -23.82970 -45.98231 22428 ft 445 kts 268°
2026-05-01 15:28 -23.83116 -46.01599 21629 ft 440 kts 268°
2026-05-01 15:29 -23.83401 -46.08186 20094 ft 431 kts 268°
2026-05-01 15:29 -23.83541 -46.11439 19337 ft 427 kts 268°
2026-05-01 15:29 -23.83815 -46.17886 17726 ft 421 kts 268°
2026-05-01 15:30 -23.84037 -46.23147 16479 ft 413 kts 268°
2026-05-01 15:31 -23.84551 -46.35483 13444 ft 401 kts 267°
2026-05-01 15:31 -23.84800 -46.41526 11872 ft 396 kts 268°
2026-05-01 15:32 -23.85039 -46.47404 11132 ft 371 kts 268°
2026-05-01 15:32 -23.85257 -46.52799 10839 ft 341 kts 268°
2026-05-01 15:33 -23.85455 -46.60311 10446 ft 331 kts 279°
2026-05-01 15:34 -23.81355 -46.65678 9843 ft 311 kts 328°